Date String (YYYY-MM-DD hh:mm:ss) UTC,Instrument flags,Ambient pressure (hPa),Sample flow (lpm),Bypass flow (lpm),Sample temperature (°C),Ambient temperature (°C),ASC tube jacket temperature (°C),LED temperature (°C),Box temperature (°C),Sample RH (%),Span deviation,Mass concentration (μg/m³),Mass concentration (μg/m³),Mass concentration (μg/m³)
DateTimeUTC,F1_M11,P_M11,Q1_M11,Q2_M11,T1_M11,T2_M11,T3_M11,T4_M11,T5_M11,U1_M11,ZSPAN_M11,X0_M11,X2_M11,X1_M11
2022-12-31 13:00:00,,0812.9,4.97,0.00,22.3,20.8,00.0,31.2,23.9,12.2,0000.0,0012.51,0009.69,0009.45
2022-12-31 13:01:00,,0812.7,5.09,0.00,22.3,20.6,00.0,31.2,23.8,12.2,0000.0,0012.56,0009.74,0009.49
2022-12-31 13:02:00,,0812.8,4.98,0.00,22.2,20.5,00.0,31.2,23.8,12.2,0000.0,0012.78,0009.84,0009.57
2022-12-31 13:03:00,,0812.9,4.98,0.00,22.2,20.5,00.0,31.1,23.8,12.2,0000.0,0013.22,0010.08,0009.78
2022-12-31 13:04:00,,0812.8,4.99,0.00,22.2,20.6,00.0,31.1,23.9,12.1,0000.0,0013.90,0010.45,0010.13
2022-12-31 13:05:00,,0812.9,5.01,0.00,22.2,20.6,00.0,31.1,23.8,12.2,0000.0,0014.20,0010.61,0010.29
2022-12-31 13:06:00,,0812.9,5.00,0.00,22.1,20.4,00.0,31.1,23.7,12.2,0000.0,0014.07,0010.53,0010.22
2022-12-31 13:07:00,,0812.8,5.02,0.00,22.1,20.2,00.0,31.1,23.6,12.3,0000.0,0014.09,0010.53,0010.22
2022-12-31 13:08:00,,0812.8,5.01,0.00,22.0,20.2,00.0,31.0,23.6,12.3,0000.0,0014.31,0010.63,0010.30
2022-12-31 13:09:00,,0812.9,4.99,0.00,22.1,21.2,00.0,31.0,23.9,12.3,0000.0,0014.45,0010.74,0010.39
2022-12-31 13:10:00,,0812.8,5.01,0.00,22.2,22.3,00.0,31.0,24.1,12.2,0000.0,0014.54,0010.81,0010.43
2022-12-31 13:11:00,,0812.8,5.04,0.00,22.3,22.7,00.0,31.0,24.3,12.3,0000.0,0014.41,0010.77,0010.41
2022-12-31 13:12:00,,0812.8,4.99,0.00,22.4,22.3,00.0,31.1,24.3,13.4,0000.0,0013.96,0010.41,0010.09
2022-12-31 13:13:00,,0812.8,4.97,0.00,22.3,21.7,00.0,31.1,24.1,13.9,0000.0,0013.33,0009.87,0009.57
2022-12-31 13:14:00,,0812.8,5.04,0.00,22.3,21.2,00.0,31.1,23.9,14.2,0000.0,0012.48,0009.27,0009.00
2022-12-31 13:15:00,,0813.0,5.02,0.00,22.2,20.9,00.0,31.1,23.8,13.6,0000.0,0011.89,0008.94,0008.69
2022-12-31 13:16:00,,0813.0,4.99,0.00,22.2,20.6,00.0,31.1,23.7,13.9,0000.0,0011.16,0008.49,0008.25
2022-12-31 13:17:00,,0812.9,4.98,0.00,22.1,20.5,00.0,31.1,23.7,13.2,0000.0,0010.89,0008.24,0008.00
2022-12-31 13:18:00,,0813.2,5.06,0.00,22.1,20.5,00.0,31.1,23.7,13.0,0000.0,0010.81,0008.10,0007.85
2022-12-31 13:19:00,,0813.2,5.00,0.00,22.1,20.6,00.0,31.1,23.7,13.1,0000.0,0010.51,0007.88,0007.65
2022-12-31 13:20:00,,0813.1,4.99,0.00,22.1,20.6,00.0,31.0,23.7,13.2,0000.0,0010.18,0007.58,0007.38
2022-12-31 13:21:00,,0813.3,5.02,0.00,22.1,20.7,00.0,31.0,23.8,13.2,0000.0,0009.83,0007.29,0007.10
2022-12-31 13:22:00,,0813.1,5.03,0.00,22.1,20.7,00.0,31.0,23.7,12.3,0000.0,0009.76,0007.24,0007.04
2022-12-31 13:23:00,,0812.9,4.99,0.00,22.1,20.7,00.0,31.0,23.7,12.3,0000.0,0010.16,0007.57,0007.34
2022-12-31 13:24:00,,0813.0,4.97,0.00,22.1,20.8,00.0,31.0,23.8,12.6,0000.0,0010.61,0007.98,0007.74
2022-12-31 13:25:00,,0813.3,5.06,0.00,22.1,20.8,00.0,31.0,23.8,12.9,0000.0,0011.05,0008.40,0008.14
2022-12-31 13:26:00,,0813.1,5.00,0.00,22.1,20.9,00.0,31.0,23.8,13.4,0000.0,0011.11,0008.44,0008.18
2022-12-31 13:27:00,,0813.1,4.97,0.00,22.1,20.9,00.0,31.0,23.8,13.1,0000.0,0011.29,0008.62,0008.37
2022-12-31 13:28:00,,0813.2,5.03,0.00,22.1,20.9,00.0,31.0,23.8,12.4,0000.0,0011.53,0008.83,0008.55
2022-12-31 13:29:00,,0813.1,5.03,0.00,22.1,20.9,00.0,31.0,23.9,12.2,0000.0,0011.57,0008.94,0008.67
2022-12-31 13:30:00,,0813.1,5.01,0.00,22.1,20.8,00.0,31.0,23.9,12.0,0000.0,0011.74,0009.11,0008.83
2022-12-31 13:31:00,,0813.1,4.99,0.00,22.1,20.8,00.0,31.0,23.9,11.8,0000.0,0011.88,0009.31,0009.05
2022-12-31 13:32:00,,0813.2,4.97,0.00,22.1,20.9,00.0,31.0,23.9,11.9,0000.0,0012.16,0009.55,0009.28
2022-12-31 13:33:00,,0813.2,5.00,0.00,22.2,21.8,00.0,30.9,24.1,11.8,0000.0,0012.21,0009.57,0009.30
2022-12-31 13:34:00,,0813.2,5.01,0.00,22.3,22.7,00.0,30.9,24.3,11.8,0000.0,0012.28,0009.60,0009.32
2022-12-31 13:35:00,,0813.2,5.00,0.00,22.4,23.1,00.0,31.0,24.5,11.7,0000.0,0012.52,0009.66,0009.39
2022-12-31 13:36:00,,0813.2,4.98,0.00,22.5,22.7,00.0,31.1,24.5,12.0,0000.0,0012.77,0009.75,0009.49
2022-12-31 13:37:00,,0813.2,4.98,0.00,22.5,22.4,00.0,31.1,24.4,12.6,0000.0,0012.84,0009.83,0009.57
2022-12-31 13:38:00,,0813.2,5.02,0.00,22.5,22.1,00.0,31.2,24.3,13.1,0000.0,0013.00,0009.76,0009.49
2022-12-31 13:39:00,,0813.2,5.02,0.00,22.5,21.8,00.0,31.2,24.3,13.2,0000.0,0012.95,0009.49,0009.25
2022-12-31 13:40:00,,0813.2,4.99,0.00,22.5,21.6,00.0,31.2,24.3,13.4,0000.0,0012.88,0009.20,0008.98
2022-12-31 13:41:00,,0813.3,5.00,0.00,22.5,21.5,00.0,31.2,24.3,13.4,0000.0,0012.48,0008.86,0008.66
2022-12-31 13:42:00,,0813.2,4.97,0.00,22.5,21.4,00.0,31.2,24.3,13.2,0000.0,0012.27,0008.63,0008.42
2022-12-31 13:43:00,,0813.2,5.08,0.00,22.5,21.3,00.0,31.2,24.2,12.1,0000.0,0012.23,0008.58,0008.36
2022-12-31 13:44:00,,0813.2,4.98,0.00,22.5,21.3,00.0,31.2,24.2,11.8,0000.0,0012.32,0008.62,0008.35
2022-12-31 13:45:00,,0813.2,4.99,0.00,22.5,21.2,00.0,31.2,24.2,11.6,0000.0,0012.54,0008.62,0008.32
2022-12-31 13:46:00,,0813.1,4.98,0.00,22.5,21.2,00.0,31.2,24.2,11.7,0000.0,0012.48,0008.61,0008.29
2022-12-31 13:47:00,,0813.1,4.98,0.00,22.5,21.2,00.0,31.3,24.2,11.8,0000.0,0012.79,0008.65,0008.27
2022-12-31 13:48:00,,0813.1,5.00,0.00,22.5,21.1,00.0,31.3,24.2,12.1,0000.0,0014.24,0008.79,0008.30
2022-12-31 13:49:00,,0813.1,5.01,0.00,22.5,21.1,00.0,31.3,24.2,12.2,0000.0,0015.06,0009.01,0008.45
2022-12-31 13:50:00,,0813.1,5.03,0.00,22.4,21.1,00.0,31.3,24.2,12.3,0000.0,0015.76,0009.19,0008.54
2022-12-31 13:51:00,,0813.2,4.97,0.00,22.4,21.1,00.0,31.3,24.2,12.4,0000.0,0016.29,0009.40,0008.64
2022-12-31 13:52:00,,0813.2,4.99,0.00,22.4,21.0,00.0,31.2,24.1,12.3,0000.0,0017.05,0009.64,0008.78
2022-12-31 13:53:00,,0813.2,4.96,0.00,22.4,21.0,00.0,31.3,24.1,12.1,-000.1,0018.38,0009.84,0008.89
2022-12-31 13:54:00,,0813.2,5.04,0.00,22.4,21.0,00.0,31.2,24.1,12.0,-000.5,0019.43,0009.92,0008.83
2022-12-31 13:55:00,,0813.2,5.03,0.00,22.4,21.0,00.0,31.2,24.1,12.1,-000.4,0019.73,0009.80,0008.67
2022-12-31 13:56:00,,0813.2,5.00,0.00,22.4,21.0,00.0,31.2,24.1,12.2,-000.6,0019.68,0009.72,0008.51
2022-12-31 13:57:00,,0813.2,4.98,0.00,22.4,21.0,00.0,31.2,24.1,12.5,-000.3,0019.57,0009.57,0008.32
2022-12-31 13:58:00,,0813.2,4.99,0.00,22.4,21.0,00.0,31.2,24.1,12.7,-000.3,0019.50,0009.39,0008.11
2022-12-31 13:59:00,,0813.1,4.98,0.00,22.4,21.0,00.0,31.2,24.1,12.7,0000.0,0018.37,0009.23,0007.97
